Regional Weather Roundup
Issued by NWS

Home | Current Version | Previous Version | Graphics & Text | Print | Product List | Glossary On
Versions: 1 2 3 4 5 6 7 8 9 10 11 12 13 14 15 16 17 18 19 20 21 22 23 24 25 26 27 28
000
ASUS45 KBOI 210810
RWRID

IDAHO REGIONAL WEATHER ROUNDUP
NATIONAL WEATHER SERVICE BOISE ID
100 AM MST SAT JAN 21 2017

NOTE: "FAIR" INDICATES FEW OR NO CLOUDS BELOW 12000 FEET
WITH NO SIGNIFICANT WEATHER AND/OR OBSTRUCTIONS TO VISIBILITY

IDZ012-014-210900-
SOUTHWEST IDAHO


CITY           SKY/WX    TMP DP  RH WIND       PRES   REMARKS
BOISE          CLOUDY    35  31  85 SE12      29.27S WCI  27
CALDWELL       CLOUDY    34  32  92 SE10      29.29S WCI  26
MOUNTAIN HOME  CLOUDY    32  32 100 E14       29.28S WCI  22
$$

IDZ016-017-210900-
SOUTHCENTRAL IDAHO


CITY           SKY/WX    TMP DP  RH WIND       PRES   REMARKS
BURLEY         CLOUDY    30  25  81 NE3       29.25F
JEROME         CLOUDY    28  26  92 NE13      29.26F WCI  17
TWIN FALLS     CLOUDY    29  29 100 CALM      29.26S
$$

IDZ019>023-210900-
SOUTHEAST IDAHO


CITY           SKY/WX    TMP DP  RH WIND       PRES   REMARKS
IDAHO FALLS    FLURRIES  21  19  92 N6        29.31F WCI  13
POCATELLO      CLOUDY    32  26  78 SE9       29.28F WCI  24
REXBURG        CLOUDY    18  15  88 NE3       29.32F
$$

IDZ006-010-011-018-031-032-210900-
CENTRAL IDAHO MOUNTAINS


CITY           SKY/WX    TMP DP  RH WIND       PRES   REMARKS
MCCALL         CLOUDY    24  20  84 N3        29.21F
HAILEY         LGT SNOW  28  28 100 CALM      29.27S
STANLEY          N/A     20  17  88 CALM      29.23F
SALMON         CLOUDY     9   5  85 S5        29.34F WCI   0
CHALLIS        LGT SNOW  12  11  95 CALM      29.29F FOG
$$

IDZ002-004-006-007-026-210900-
NORTHERN IDAHO


CITY           SKY/WX    TMP DP  RH WIND       PRES   REMARKS
LEWISTON       CLOUDY    36  31  82 SE7       29.26R WCI  30
LOWELL           N/A     31  29  92 CALM      29.33S
COEUR D`ALENE  CLOUDY    35  30  82 N13       29.25S WCI  26
MULLAN PASS    CLOUDY    23  20  88 SE9       29.21S WCI  13
$$




USA.gov is the U.S. government's official web portal to all federal, state and local government web resources and services.